sat.trackr.live / text

‹ back to catalog

STARLINK-33988

NORAD 63938 · 2025-098N

PAYLOAD ACTIVE UNKNOWN

§ Identity

Operator
Country
US
Launch date
2025-05-13
Launch site
AFWTR
Launch vehicle
Mass (kg)
RCS (m²)

Purposes: comms

External: N2YO · Heavens-Above · Gunter

§ Orbital elements

Epoch: 2026-09-20T22:08:53.254176Z

Period
94.14 min
Inclination
69.9993°
Eccentricity
0.0002746
Mean motion
15.29583742 rev/d
Perigee alt
475.2 km
Apogee alt
478.9 km
Semi-major
6,855.2 km
B*
3.2439e-4
RAAN
139.9314°
Arg perigee
268.0115°
Mean anomaly
92.0745°
Rev number
7,585

§ Raw data

STARLINK-339881 63938U 25098N   26263.92283859  .00009209  00000+0  32439-3 0  99912 63938  69.9993 139.9314 0002746 268.0115  92.0745 15.29583742 75856

JSON: /api/v1/satellites/63938 · /tle

For live sub-satellite position, see the globe view (requires WebGL).

§ Visibility from observer

Set your observer location to see the next 7 days of passes ≥ 10°. The values pass through the URL so the page stays shareable.

No JS? Fill the form by hand. The geolocation button needs JavaScript.